Atmospheric History
02/08/2018 18:35  to  2/9/2018 18:35
Change End Date:
To complete the export process:
1) Select all of the data below
2) Copy the data to the clipboard
3) Open a word processor such as Notepad
4) Paste the data into the word processor
5) Save the file

Date/Time (MDT), AirTemp, RH, Dewpoint ,AvgWindSpeed, GustWindSpeed, WindDirection, PrecipType, PrecipIntensity, PrecipAccumulation, PrecipRate
02/09/2018 18:26, 19, 74, 13 ,13, 16, SW, None, None, ,  
02/09/2018 18:25, 19, 75, 13 ,13, 16, SW, None, None, ,  
02/09/2018 18:16, 18, 77, 12 ,13, 16, SW, None, None, ,  
02/09/2018 18:10, 19, 76, 13 ,14, 16, SW, None, None, ,  
02/09/2018 18:06, 19, 76, 13 ,15, 16, SW, None, None, ,  
02/09/2018 17:56, 19, 76, 13 ,12, 15, SW, None, None, ,  
02/09/2018 17:55, 19, 76, 13 ,11, 15, SW, None, None, ,  
02/09/2018 17:46, 20, 75, 13 ,10, 13, SW, None, None, ,  
02/09/2018 17:40, 21, 72, 13 ,11, 13, W, None, None, ,  
02/09/2018 17:36, 22, 64, 11 ,9, 12, W, None, None, ,  
02/09/2018 17:26, 22, 61, 11 ,9, 17, NW, None, None, ,  
02/09/2018 17:25, 22, 61, 11 ,10, 17, NW, None, None, ,  
02/09/2018 17:16, 23, 58, 11 ,13, 17, NW, None, None, ,  
02/09/2018 17:10, 23, 62, 12 ,11, 16, NW, None, None, ,  
02/09/2018 17:06, 24, 64, 13 ,11, 14, NW, None, None, ,  
02/09/2018 16:56, 23, 76, 17 ,9, 12, W, None, None, ,  
02/09/2018 16:55, 23, 76, 17 ,9, 12, W, None, None, ,  
02/09/2018 16:46, 22, 76, 16 ,9, 11, W, None, None, ,  
02/09/2018 16:40, 23, 74, 17 ,10, 11, W, None, None, ,  
02/09/2018 16:36, 24, 74, 17 ,7, 11, W, None, None, ,  
02/09/2018 16:25, 24, 76, 18 ,9, 12, W, None, None, ,  
02/09/2018 16:25, 24, 76, 18 ,9, 12, W, None, None, ,  
02/09/2018 16:15, 24, 76, 18 ,8, 9, W, None, None, ,  
02/09/2018 16:10, 25, 76, 18 ,7, 9, W, None, None, ,  
02/09/2018 16:05, 25, 75, 18 ,9, 11, W, None, None, ,  
02/09/2018 15:55, 25, 75, 18 ,9, 12, W, None, None, ,  
02/09/2018 15:55, 25, 75, 18 ,9, 12, W, None, None, ,  
02/09/2018 15:45, 25, 76, 19 ,9, 12, W, None, None, ,  
02/09/2018 15:40, 25, 76, 19 ,11, 12, W, None, None, ,  
02/09/2018 15:35, 25, 76, 19 ,9, 14, W, None, None, ,  
02/09/2018 15:25, 25, 76, 19 ,10, 12, W, None, None, ,  
02/09/2018 15:25, 26, 76, 19 ,10, 12, W, None, None, ,  
02/09/2018 15:15, 26, 76, 19 ,12, 14, W, None, None, ,  
02/09/2018 15:10, 26, 75, 19 ,10, 14, W, None, None, ,  
02/09/2018 15:05, 25, 76, 19 ,12, 14, NW, None, None, ,  
02/09/2018 14:55, 25, 76, 19 ,11, 13, W, None, None, ,  
02/09/2018 14:55, 25, 76, 19 ,11, 13, W, None, None, ,  
02/09/2018 14:45, 26, 76, 19 ,12, 14, W, None, None, ,  
02/09/2018 14:40, 25, 77, 19 ,10, 14, W, None, None, ,  
02/09/2018 14:35, 25, 78, 19 ,12, 14, W, None, None, ,  
02/09/2018 14:25, 26, 78, 20 ,11, 15, NW, None, None, ,  
02/09/2018 14:25, 26, 78, 20 ,11, 15, NW, None, None, ,  
02/09/2018 14:15, 25, 79, 20 ,12, 14, W, None, None, ,  
02/09/2018 14:10, 25, 81, 20 ,12, 14, W, None, None, ,  
02/09/2018 14:05, 25, 82, 20 ,12, 14, W, None, None, ,  
02/09/2018 13:55, 24, 86, 21 ,11, 15, W, None, None, ,  
02/09/2018 13:55, 24, 86, 21 ,11, 15, W, None, None, ,  
02/09/2018 13:45, 24, 90, 22 ,12, 16, W, None, None, ,  
02/09/2018 13:40, 24, 89, 22 ,12, 17, W, None, None, ,  
02/09/2018 13:34, 24, 86, 21 ,14, 17, W, Yes, , ,  
02/09/2018 13:25, 26, 81, 20 ,12, 16, W, None, None, ,  
02/09/2018 13:24, 26, 81, 21 ,12, 16, W, None, None, ,  
02/09/2018 13:14, 25, 82, 21 ,12, 17, W, None, None, ,  
02/09/2018 13:10, 25, 82, 20 ,13, 17, W, None, None, ,  
02/09/2018 13:04, 25, 80, 20 ,14, 16, W, None, None, ,  
02/09/2018 12:55, 26, 78, 20 ,13, 17, W, None, None, ,  
02/09/2018 12:54, 26, 78, 20 ,13, 17, W, None, None, ,  
02/09/2018 12:44, 26, 82, 21 ,12, 14, W, None, None, ,  
02/09/2018 12:40, 26, 83, 22 ,11, 16, W, None, None, ,  
02/09/2018 12:34, 26, 82, 21 ,12, 16, W, None, None, ,  
02/09/2018 12:25, 26, 81, 21 ,11, 16, W, None, None, ,  
02/09/2018 12:24, 26, 82, 21 ,11, 16, W, None, None, ,  
02/09/2018 12:14, 25, 86, 22 ,8, 17, NW, Yes, , ,  
02/09/2018 12:10, 25, 87, 22 ,11, 12, W, None, None, ,  
02/09/2018 12:04, 25, 89, 22 ,9, 12, W, None, None, ,  
02/09/2018 11:55, 25, 91, 23 ,8, 12, W, Yes, , ,  
02/09/2018 11:54, 25, 91, 23 ,7, 12, W, Yes, , ,  
02/09/2018 11:44, 24, 92, 22 ,9, 12, W, None, None, ,  
02/09/2018 11:40, 24, 93, 22 ,10, 13, W, None, None, ,  
02/09/2018 11:34, 24, 94, 22 ,12, 14, W, None, None, ,  
02/09/2018 11:25, 23, 95, 22 ,12, 13, W, None, None, ,  
02/09/2018 11:24, 23, 96, 23 ,12, 13, W, None, None, ,  
02/09/2018 11:14, 22, 97, 22 ,12, 14, W, None, None, ,  
02/09/2018 11:10, 22, 97, 22 ,12, 14, W, Yes, , ,  
02/09/2018 11:04, 22, 95, 21 ,13, 15, W, Yes, , ,  
02/09/2018 10:55, 22, 92, 20 ,13, 15, W, Yes, , ,  
02/09/2018 10:53, 22, 91, 20 ,13, 15, W, Yes, , ,  
02/09/2018 10:43, 22, 87, 19 ,12, 16, W, Yes, , ,  
02/09/2018 10:40, 22, 87, 19 ,12, 17, W, None, None, ,  
02/09/2018 10:33, 22, 86, 19 ,13, 17, W, None, None, ,  
02/09/2018 10:25, 22, 86, 18 ,14, 17, W, None, None, ,  
02/09/2018 10:23, 22, 86, 18 ,12, 17, W, None, None, ,  
02/09/2018 10:13, 21, 84, 17 ,16, 17, W, None, None, ,  
02/09/2018 10:10, 21, 84, 17 ,16, 20, W, None, None, ,  
02/09/2018 10:03, 20, 83, 16 ,17, 21, W, None, None, ,  
02/09/2018 09:55, 20, 81, 15 ,17, 21, W, None, None, ,  
02/09/2018 09:53, 19, 81, 14 ,17, 21, W, None, None, ,  
02/09/2018 09:43, 17, 81, 13 ,23, 25, W, None, None, ,  
02/09/2018 09:40, 17, 82, 12 ,21, 25, W, None, None, ,  
02/09/2018 09:33, 16, 82, 12 ,20, 25, W, None, None, ,  
02/09/2018 09:25, 18, 82, 13 ,21, 25, W, None, None, ,  
02/09/2018 09:23, 18, 83, 14 ,22, 25, W, None, None, ,  
02/09/2018 09:13, 19, 81, 15 ,16, 18, W, None, None, ,  
02/09/2018 09:10, 21, 80, 16 ,14, 17, W, None, None, ,  
02/09/2018 09:03, 21, 83, 17 ,13, 16, W, None, None, ,  
02/09/2018 08:55, 20, 83, 16 ,14, 16, W, None, None, ,  
02/09/2018 08:53, 21, 83, 17 ,14, 16, W, None, None, ,  
02/09/2018 08:43, 21, 84, 17 ,9, 11, W, None, None, ,  
02/09/2018 08:40, 21, 85, 18 ,9, 11, W, None, None, ,  
02/09/2018 08:33, 20, 87, 17 ,6, 12, W, Yes, , ,  
02/09/2018 08:25, 19, 85, 16 ,11, 14, W, None, None, ,  
02/09/2018 08:23, 20, 85, 16 ,10, 14, W, Yes, , ,  
02/09/2018 08:13, 20, 81, 15 ,9, 14, W, None, None, ,  
02/09/2018 08:10, 21, 80, 15 ,11, 14, W, Yes, , ,  
02/09/2018 08:02, 22, 77, 16 ,9, 13, W, None, None, ,  
02/09/2018 07:55, 22, 77, 16 ,11, 14, W, None, None, ,  
02/09/2018 07:52, 22, 76, 16 ,9, 14, W, None, None, ,  
02/09/2018 07:42, 22, 77, 16 ,7, 12, W, None, None, ,  
02/09/2018 07:40, 21, 76, 15 ,7, 11, W, None, None, ,  
02/09/2018 07:32, 21, 74, 14 ,9, 10, W, None, None, ,  
02/09/2018 07:25, 22, 72, 15 ,6, 8, W, None, None, ,  
02/09/2018 07:22, 23, 72, 15 ,6, 10, W, None, None, ,  
02/09/2018 07:12, 23, 71, 15 ,8, 9, W, None, None, ,  
02/09/2018 07:10, 22, 71, 14 ,7, 9, W, None, None, ,  
02/09/2018 07:02, 23, 69, 14 ,7, 7, W, None, None, ,  
02/09/2018 06:55, 21, 69, 13 ,5, 6, W, None, None, ,  
02/09/2018 06:52, 22, 69, 13 ,4, 6, W, None, None, ,  
02/09/2018 06:42, 22, 66, 13 ,4, 7, W, None, None, ,  
02/09/2018 06:40, 23, 66, 13 ,6, 7, W, None, None, ,  
02/09/2018 06:32, 23, 65, 13 ,6, 6, W, None, None, ,  
02/09/2018 06:25, 23, 64, 13 ,2, 4, W, None, None, ,  
02/09/2018 06:22, 22, 66, 13 ,3, 4, W, None, None, ,  
02/09/2018 06:12, 22, 64, 12 ,3, 7, W, None, None, ,  
02/09/2018 06:10, 22, 64, 12 ,3, 7, W, None, None, ,  
02/09/2018 06:02, 23, 62, 12 ,3, 6, SW, None, None, ,  
02/09/2018 05:55, 23, 63, 13 ,2, 4, NW, None, None, ,  
02/09/2018 05:52, 23, 63, 13 ,2, 4, SW, None, None, ,  
02/09/2018 05:42, 23, 64, 13 ,2, 4, SW, None, None, ,  
02/09/2018 05:40, 23, 64, 13 ,3, 4, SW, None, None, ,  
02/09/2018 05:32, 24, 62, 13 ,2, 4, SW, None, None, ,  
02/09/2018 05:25, 25, 63, 14 ,2, 4, SW, None, None, ,  
02/09/2018 05:21, 24, 65, 14 ,1, 2, SW, None, None, ,  
02/09/2018 05:11, 25, 69, 16 ,0, 2, E, None, None, ,  
02/09/2018 05:10, 25, 69, 16 ,0, 2, E, None, None, ,  
02/09/2018 05:01, 24, 72, 17 ,0, 2, NE, None, None, ,  
02/09/2018 04:55, 26, 68, 17 ,1, 2, S, None, None, ,  
02/09/2018 04:51, 25, 71, 17 ,2, 2, SE, None, None, ,  
02/09/2018 04:41, 26, 69, 17 ,2, 6, S, None, None, ,  
02/09/2018 04:40, 25, 73, 18 ,1, 6, S, None, None, ,  
02/09/2018 04:31, 25, 70, 17 ,1, 4, E, None, None, ,  
02/09/2018 04:25, 27, 70, 19 ,2, 6, S, None, None, ,  
02/09/2018 04:21, 26, 75, 19 ,4, 6, SE, None, None, ,  
02/09/2018 04:11, 26, 75, 19 ,2, 6, SE, None, None, ,  
02/09/2018 04:10, 26, 75, 19 ,3, 7, SE, None, None, ,  
02/09/2018 04:01, 24, 74, 17 ,6, 7, SE, None, None, ,  
02/09/2018 03:55, 25, 70, 17 ,3, 6, SE, None, None, ,  
02/09/2018 03:51, 25, 69, 16 ,4, 6, S, None, None, ,  
02/09/2018 03:41, 24, 67, 15 ,6, 6, S, None, None, ,  
02/09/2018 03:40, 24, 65, 15 ,4, 6, SE, None, None, ,  
02/09/2018 03:31, 26, 62, 15 ,0, 1, SW, None, None, ,  
02/09/2018 03:25, 26, 62, 15 ,1, 2, W, None, None, ,  
02/09/2018 03:21, 27, 61, 15 ,0, 4, SW, None, None, ,  
02/09/2018 03:11, 27, 61, 15 ,2, 3, S, None, None, ,  
02/09/2018 03:10, 27, 62, 15 ,1, 2, S, None, None, ,  
02/09/2018 03:01, 28, 59, 16 ,2, 5, SW, None, None, ,  
02/09/2018 02:55, 30, 56, 17 ,2, 6, SW, None, None, ,  
02/09/2018 02:51, 30, 57, 16 ,5, 7, S, None, None, ,  
02/09/2018 02:40, 28, 70, 20 ,6, 8, SE, None, None, ,  
02/09/2018 02:40, 28, 72, 20 ,5, 8, SE, None, None, ,  
02/09/2018 02:30, 28, 76, 21 ,6, 9, SE, None, None, ,  
02/09/2018 02:25, 27, 77, 21 ,7, 9, SE, None, None, ,  
02/09/2018 02:20, 27, 79, 21 ,7, 8, SE, None, None, ,  
02/09/2018 02:10, 26, 78, 20 ,7, 9, SE, None, None, ,  
02/09/2018 02:10, 26, 78, 20 ,7, 9, SE, None, None, ,  
02/09/2018 02:00, 26, 77, 20 ,7, 9, SE, None, None, ,  
02/09/2018 01:55, 26, 77, 20 ,6, 7, E, None, None, ,  
02/09/2018 01:50, 27, 76, 21 ,6, 8, SE, None, None, ,  
02/09/2018 01:40, 28, 70, 19 ,4, 7, SE, None, None, ,  
02/09/2018 01:40, 28, 69, 19 ,3, 7, SE, None, None, ,  
02/09/2018 01:30, 26, 75, 20 ,6, 7, SE, Yes, , ,  
02/09/2018 01:25, 27, 72, 20 ,4, 7, SE, None, None, ,  
02/09/2018 01:20, 27, 74, 20 ,4, 9, SE, None, None, ,  
02/09/2018 01:10, 28, 71, 20 ,6, 7, S, None, None, ,  
02/09/2018 01:10, 29, 71, 20 ,6, 7, S, None, None, ,  
02/09/2018 01:00, 28, 75, 21 ,5, 9, S, None, None, ,  
02/09/2018 00:55, 28, 75, 21 ,6, 11, SE, None, None, ,  
02/09/2018 00:50, 29, 74, 22 ,7, 11, SE, None, None, ,  
02/09/2018 00:40, 28, 72, 20 ,9, 11, SE, None, None, ,  
02/09/2018 00:40, 28, 72, 20 ,9, 11, SE, None, None, ,  
02/09/2018 00:30, 28, 67, 19 ,8, 9, SE, None, None, ,  
02/09/2018 00:25, 28, 71, 20 ,7, 10, SE, None, None, ,  
02/09/2018 00:20, 27, 70, 18 ,6, 10, SE, None, None, ,  
02/09/2018 00:10, 29, 58, 17 ,3, 7, SE, None, None, ,  
02/09/2018 00:10, 29, 57, 16 ,3, 7, SE, None, None, ,  
02/09/2018 00:00, 28, 61, 17 ,2, 6, S, None, None, ,  
02/08/2018 23:55, 29, 58, 16 ,2, 6, S, None, None, ,  
02/08/2018 23:49, 29, 59, 16 ,4, 6, SE, None, None, ,  
02/08/2018 23:40, 31, 53, 16 ,1, 6, NE, None, None, ,  
02/08/2018 23:39, 31, 52, 16 ,2, 6, NE, None, None, ,  
02/08/2018 23:29, 33, 48, 16 ,3, 9, SW, None, None, ,  
02/08/2018 23:25, 33, 48, 16 ,1, 9, N, None, None, ,  
02/08/2018 23:19, 33, 51, 17 ,2, 10, W, None, None, ,  
02/08/2018 23:10, 36, 44, 16 ,4, 6, S, None, None, ,  
02/08/2018 23:09, 36, 44, 16 ,4, 6, S, None, None, ,  
02/08/2018 22:59, 32, 55, 18 ,5, 7, NE, None, None, ,  
02/08/2018 22:55, 33, 52, 17 ,3, 6, E, None, None, ,  
02/08/2018 22:49, 32, 55, 18 ,4, 8, E, None, None, ,  
02/08/2018 22:40, 32, 58, 19 ,5, 11, E, None, None, ,  
02/08/2018 22:39, 32, 61, 20 ,4, 11, E, None, None, ,  
02/08/2018 22:29, 27, 76, 20 ,8, 10, SE, None, None, ,  
02/08/2018 22:25, 28, 73, 20 ,7, 9, SE, None, None, ,  
02/08/2018 22:19, 30, 64, 20 ,4, 6, E, None, None, ,  
02/08/2018 22:10, 33, 55, 19 ,2, 4, NE, None, None, ,  
02/08/2018 22:09, 32, 55, 18 ,2, 5, NE, None, None, ,  
02/08/2018 21:59, 32, 58, 19 ,4, 8, N, None, None, ,  
02/08/2018 21:55, 33, 58, 20 ,4, 7, NW, None, None, ,  
02/08/2018 21:49, 33, 59, 21 ,3, 6, N, None, None, ,  
02/08/2018 21:40, 32, 64, 22 ,1, 3, N, None, None, ,  
02/08/2018 21:39, 32, 65, 22 ,1, 2, NE, None, None, ,  
02/08/2018 21:29, 32, 72, 24 ,1, 6, NE, None, None, ,  
02/08/2018 21:25, 31, 73, 24 ,0, 6, NE, None, None, ,  
02/08/2018 21:18, 31, 71, 24 ,0, 3, S, None, None, ,  
02/08/2018 21:10, 29, 76, 23 ,1, 3, SW, None, None, ,  
02/08/2018 21:08, 29, 75, 22 ,2, 3, SE, None, None, ,  
02/08/2018 20:58, 31, 77, 25 ,2, 8, S, None, None, ,  
02/08/2018 20:55, 31, 79, 25 ,2, 8, SE, Yes, , ,  
02/08/2018 20:48, 30, 80, 25 ,4, 7, SE, None, None, ,  
02/08/2018 20:40, 31, 79, 26 ,4, 9, SE, Yes, , ,  
02/08/2018 20:38, 31, 80, 26 ,4, 9, SE, Yes, , ,  
02/08/2018 20:28, 29, 83, 25 ,4, 7, SE, None, None, ,  
02/08/2018 20:25, 29, 82, 25 ,5, 10, SE, None, None, ,  
02/08/2018 20:18, 30, 82, 26 ,6, 10, SE, None, None, ,  
02/08/2018 20:10, 30, 80, 25 ,7, 9, SE, Yes, , ,  
02/08/2018 20:08, 30, 79, 24 ,8, 9, SE, Yes, , ,  
02/08/2018 19:58, 31, 77, 25 ,9, 11, SE, None, None, ,  
02/08/2018 19:55, 32, 75, 25 ,7, 11, SE, Yes, , ,  
02/08/2018 19:48, 32, 74, 25 ,7, 11, SE, None, None, ,  
02/08/2018 19:40, 33, 74, 26 ,4, 8, SE, Yes, , ,  
02/08/2018 19:38, 33, 76, 26 ,6, 9, SE, None, None, ,  
02/08/2018 19:28, 30, 86, 27 ,9, 9, SE, None, None, ,  
02/08/2018 19:25, 29, 86, 26 ,7, 9, SE, Yes, , ,  
02/08/2018 19:18, 30, 85, 26 ,7, 11, E, None, None, ,  
02/08/2018 19:10, 30, 83, 25 ,9, 10, SE, None, None, ,  
02/08/2018 19:08, 30, 82, 25 ,8, 9, SE, None, None, ,  
02/08/2018 18:58, 32, 77, 26 ,9, 10, SE, None, None, ,  
02/08/2018 18:55, 33, 81, 28 ,6, 7, SE, None, None, ,  
02/08/2018 18:48, 31, 83, 27 ,6, 9, SE, None, None, ,  
02/08/2018 18:40, 31, 84, 27 ,7, 10, SE, None, None, ,  
02/08/2018 18:37, 31, 84, 27 ,8, 12, SE, None, None, ,  
Change End Date:

Copyright © 1998-2015 Vaisala, Inc.
All Rights Reserved
Send comments about the data to:
SCAN Web ® is a registered trademark of Vaisala, Inc.
SCAN Web Version 6.0